カタログに戻る

Replicator

運用中科学VLEO
NORAD 60235·PAYLOAD·🇺🇸 United States

打ち上げ Jul 9, 2024 から Guiana Space Centre

Loading…

次のパス (今後24時間)

TLE

最新Source: Space-Track

元期: Sep 14, 2026, 13:22 UTC

1 60235U 24128A   26257.55694854  .00001146  00000-0  10312-3 0  9993
2 60235  61.9934 280.3095 0037305 159.3860 200.8745 15.01456817119428

AllMySatでReplicatorをリアルタイム追跡

Download on the App Store